CW8212 Weather Reports


Display with metric or nautical units.
time (UTC)temp
F
wind
direction
speed
MPH
gust
MPH
rain 1hr
in
rain 24hr
in
rain mn
in
humidity
%
barometer
mb
20260510130028 58 9 0.0 0.0 0.00 0.03 0.00 96 1013.9
20260510124525 57 171 0.0 0.0 0.00 0.03 0.00 96 1013.9
20260510123018 55 171 0.0 0.0 0.00 0.03 0.00 96 1013.7
20260510121514 53 171 0.0 0.0 0.00 0.03 0.00 95 1013.4
20260510120013 53 171 0.0 0.0 0.00 0.03 0.00 95 1013.3
20260510114510 52 153 0.0 1.0 0.00 0.03 0.00 95 1013.0
20260510113012 52 211 0.0 0.0 0.00 0.03 0.00 95 1013.2
20260510111506 51 131 0.0 1.0 0.00 0.03 0.00 95 1012.9
20260510110005 51 110 0.0 1.0 0.00 0.03 0.00 95 1013.1
20260510104501 51 250 0.0 0.0 0.00 0.03 0.00 94 1012.8
20260510103102 51 90 0.0 1.0 0.00 0.03 0.00 94 1012.5
20260510101556 51 263 0.0 0.0 0.00 0.03 0.00 94 1012.3
20260510100056 50 347 0.0 1.0 0.00 0.03 0.00 94 1012.2
20260510094555 50 311 0.0 0.0 0.00 0.03 0.00 94 1012.2
20260510093105 50 311 0.0 0.0 0.00 0.03 0.00 94 1012.0
20260510091556 50 311 0.0 1.0 0.00 0.03 0.00 94 1012.1
20260510090053 50 277 0.0 1.0 0.00 0.03 0.00 94 1012.1
20260510084554 50 261 0.0 4.0 0.00 0.03 0.00 94 1012.3
20260510083052 50 183 0.0 5.0 0.00 0.03 0.00 93 1012.1
20260510081614 50 303 0.0 1.0 0.00 0.03 0.00 93 1011.9
20260510080047 49 274 0.0 0.0 0.00 0.03 0.00 93 1011.5
20260510074546 49 274 0.0 0.0 0.00 0.03 0.00 93 1011.5
20260510073055 49 274 0.0 0.0 0.00 0.03 0.00 92 1011.4
20260510071544 49 274 0.0 1.0 0.00 0.03 0.00 92 1011.4
20260510070043 49 274 0.0 1.0 0.00 0.03 0.00 92 1011.2
20260510064553 49 274 0.0 0.0 0.00 0.03 0.00 91 1010.9
20260510063044 49 274 0.0 0.0 0.00 0.03 0.00 91 1010.8
20260510061545 49 274 0.0 0.0 0.00 0.03 0.00 91 1010.9
20260510060046 50 274 0.0 0.0 0.00 0.03 0.00 91 1011.0
20260510054538 50 274 0.0 0.0 0.00 0.03 0.00 91 1011.1
20260510053042 50 274 0.0 0.0 0.00 0.03 0.00 91 1011.3
20260510051536 50 274 0.0 0.0 0.00 0.03 0.00 91 1011.3
20260510050037 50 274 0.0 0.0 0.00 0.03 0.00 91 1011.3
20260510044544 50 274 0.0 0.0 0.00 0.03 0.00 91 1011.4
20260510043032 50 274 0.0 0.0 0.00 0.03 0.00 91 1011.5
20260510041527 51 274 0.0 0.0 0.00 0.03 0.00 91 1011.6
20260510040037 51 274 0.0 0.0 0.00 0.03 0.00 91 1011.7
20260510034523 51 274 0.0 1.0 0.00 0.03 0.03 90 1011.7
20260510033032 52 274 0.0 0.0 0.00 0.03 0.03 91 1011.4
20260510031521 52 274 0.0 0.0 0.00 0.03 0.03 90 1011.4
20260510030019 52 274 0.0 0.0 0.00 0.03 0.03 90 1011.1
20260510024519 52 274 0.0 0.0 0.00 0.03 0.03 90 1011.1
20260510023017 52 274 0.0 0.0 0.00 0.03 0.03 90 1011.1
20260510021516 53 274 0.0 0.0 0.00 0.03 0.03 90 1011.2
20260510020020 53 274 0.0 0.0 0.00 0.03 0.03 90 1011.0
20260510014514 53 274 0.0 0.0 0.00 0.03 0.03 90 1011.0
20260510013012 54 274 0.0 0.0 0.00 0.03 0.03 90 1011.0
20260510011516 54 274 0.0 0.0 0.00 0.03 0.03 90 1010.8
20260510010011 54 274 0.0 0.0 0.00 0.03 0.03 90 1010.8
20260510004511 55 274 0.0 0.0 0.00 0.03 0.03 90 1010.6
20260510003010 55 274 0.0 1.0 0.00 0.03 0.03 90 1010.5
20260510001509 56 273 0.0 0.0 0.00 0.03 0.03 90 1010.5
20260510000015 56 274 0.0 0.0 0.00 0.03 0.03 90 1010.4
20260509234512 56 186 0.0 0.0 0.00 0.03 0.03 90 1010.4
20260509233010 56 195 0.0 0.0 0.00 0.03 0.03 91 1010.4
20260509231507 56 315 0.0 0.0 0.00 0.03 0.03 91 1010.4
20260509230016 56 22 0.0 1.0 0.00 0.03 0.03 91 1010.2
20260509224506 56 113 0.0 1.0 0.00 0.03 0.03 91 1010.4
20260509223009 56 158 0.0 1.0 0.00 0.03 0.03 91 1010.5
20260509221506 56 119 0.0 0.0 0.00 0.03 0.03 90 1010.4
20260509220006 56 105 0.0 2.0 0.00 0.03 0.03 90 1010.5
20260509214504 56 321 0.0 0.0 0.00 0.03 0.03 90 1010.4
20260509213004 56 321 0.0 0.0 0.01 0.03 0.03 90 1010.6
20260509211504 56 321 0.0 0.0 0.01 0.03 0.03 90 1010.7
20260509210008 56 298 0.0 1.0 0.01 0.03 0.03 89 1010.6
20260509204502 56 11 0.0 3.0 0.02 0.03 0.03 89 1010.7
20260509203002 56 284 0.0 2.0 0.01 0.02 0.02 89 1010.5
20260509201606 56 278 0.0 3.0 0.01 0.02 0.02 89 1010.4
20260509200111 56 312 0.0 1.0 0.01 0.02 0.02 88 1010.5
20260509194558 56 273 0.0 2.0 0.00 0.01 0.01 88 1010.7
20260509193113 56 292 0.0 3.0 0.01 0.01 0.01 87 1011.0
20260509191554 57 263 0.0 4.0 0.01 0.01 0.01 87 1011.2
20260509190052 57 287 0.0 6.0 0.01 0.01 0.01 86 1011.5
20260509184605 57 302 0.0 3.0 0.01 0.01 0.01 84 1011.5
20260509183051 57 313 0.0 3.0 0.00 0.00 0.00 82 1011.4
20260509181549 58 317 1.0 5.0 0.00 0.00 0.00 80 1011.8
20260509180049 58 294 2.0 6.0 0.00 0.00 0.00 78 1011.9
20260509174549 59 285 4.0 10.0 0.00 0.00 0.00 77 1011.9
20260509173101 59 325 1.0 4.0 0.00 0.00 0.00 77 1011.7
20260509171603 60 278 0.0 2.0 0.00 0.00 0.00 79 1011.6
20260509170046 60 123 0.0 4.0 0.00 0.00 0.00 81 1011.7
20260509164545 60 335 0.0 4.0 0.00 0.00 0.00 80 1011.7
20260509163046 60 339 0.0 6.0 0.00 0.00 0.00 79 1011.7
20260509161548 61 350 1.0 4.0 0.00 0.00 0.00 78 1011.8
20260509160043 61 355 1.0 6.0 0.00 0.00 0.00 76 1012.3
20260509154548 61 333 0.0 2.0 0.00 0.00 0.00 75 1012.4
20260509153042 61 161 0.0 3.0 0.00 0.00 0.00 75 1012.4
20260509151541 61 168 0.0 4.0 0.00 0.00 0.00 75 1012.5
20260509150050 61 250 0.0 3.0 0.00 0.00 0.00 74 1012.4
20260509144615 60 235 1.0 5.0 0.00 0.00 0.00 74 1012.3
20260509143044 60 237 1.0 7.0 0.00 0.00 0.00 75 1012.2
20260509141541 60 225 0.0 6.0 0.00 0.00 0.00 77 1012.1
20260509140034 60 313 1.0 5.0 0.00 0.00 0.00 79 1012.0
20260509134533 59 184 0.0 6.0 0.00 0.00 0.00 81 1011.9
20260509133034 59 201 0.0 3.0 0.00 0.00 0.00 82 1012.0
20260509131537 58 212 1.0 7.0 0.00 0.00 0.00 83 1012.0